User: anonymous   Login
Location: Bartlow
(52.0833°N, 0.3167°E)
Time: 04:13:00
(UTC+00:00)
Language:

CZ-4C R/B - Orbit

View from above orbital plane
View from above orbital plane
View from above satellite
View from above satellite

Ground track
Ground track

The orbit data is extracted from the following two-line orbital elements,

1 36416U 10009D   24060.58704765  .00000300  00000-0  11750-3 0  9994
2 36416  63.4028 158.2579 0625752 358.4411   1.4663 13.70513699699531
Epoch (UTC): 29 February 2024 14:05:20
Eccentricity: 0.0625752
inclination: 63.4028°
perigee height: 536 km
apogee height: 1459 km
right ascension of ascending node: 158.2579°
argument of perigee: 358.4411°
revolutions per day: 13.70513699
mean anomaly at epoch: 1.4663°
orbit number at epoch: 69953

The dashed part of the orbit path shows where the satellite is in the earth's shadow,  

DLR